FW5188 Weather Reports


time (UTC)temp
C
wind
direction
speed
KPH
gust
KPH
rain 1hr
cm
rain 24hr
cm
rain mn
cm
humidity
%
barometer
mb
20260504081501 7 179 0.0 0.0 0.00 0.00 0.00 89 1016.7
20260504044543 8 218 0.0 1.6 0.00 0.00 0.00 87 1017.6
20260504043055 8 219 0.0 1.6 0.00 0.00 0.00 87 1017.6
20260504041538 8 252 0.0 0.0 0.00 0.00 0.00 86 1017.7
20260504040041 8 252 0.0 0.0 0.00 0.00 0.00 85 1017.9
20260504034638 9 253 1.6 4.8 0.00 0.00 0.00 83 1018.1
20260504033036 10 267 0.0 0.0 0.00 0.00 0.00 82 1018.3
20260504031547 10 267 0.0 0.0 0.00 0.00 0.00 81 1018.2
20260504030041 10 267 0.0 0.0 0.00 0.00 0.00 79 1018.1
20260504024538 11 267 0.0 0.0 0.00 0.00 0.00 77 1018.1
20260504023034 11 267 0.0 0.0 0.00 0.00 0.00 76 1018.2
20260504021544 11 267 0.0 0.0 0.00 0.00 0.00 73 1017.9
20260504020038 12 267 0.0 0.0 0.00 0.00 0.00 70 1017.7
20260504014532 12 267 0.0 1.6 0.00 0.00 0.00 66 1017.7
20260504013036 13 355 0.0 0.0 0.00 0.00 0.00 64 1017.7
20260504011533 14 355 0.0 0.0 0.00 0.00 0.00 60 1017.6
20260504010032 15 355 0.0 0.0 0.00 0.00 0.00 56 1017.6
20260504004540 15 355 0.0 3.2 0.00 0.00 0.00 51 1017.5
20260504003130 16 344 0.0 4.8 0.00 0.00 0.00 49 1017.4
20260504001535 16 331 1.6 4.8 0.00 0.00 0.00 47 1017.4
20260504000029 17 344 3.2 14.5 0.00 0.00 0.00 46 1017.4
20260503234529 17 327 6.4 14.5 0.00 0.00 0.00 45 1017.4
20260503233028 17 360 4.8 12.9 0.00 0.00 0.00 43 1017.3
20260503231527 17 336 4.8 14.5 0.00 0.00 0.00 44 1017.3
20260503230026 17 292 9.7 16.1 0.00 0.00 0.00 45 1017.3
20260503224525 17 355 9.7 17.7 0.00 0.00 0.00 45 1017.3
20260503223024 17 272 11.3 19.3 0.00 0.00 0.00 47 1017.4
20260503221523 17 360 8.0 17.7 0.00 0.00 0.00 46 1017.6
20260503220030 17 355 8.0 17.7 0.00 0.00 0.00 48 1017.6
20260503214532 18 134 3.2 16.1 0.00 0.00 0.00 49 1017.7
20260503213029 17 37 11.3 19.3 0.00 0.00 0.00 46 1017.9
20260503211518 17 308 9.7 14.5 0.00 0.00 0.00 49 1018.0
20260503210019 17 326 12.9 22.5 0.00 0.00 0.00 52 1018.3
20260503204525 17 312 6.4 14.5 0.00 0.00 0.00 54 1018.5
20260503203016 17 304 9.7 17.7 0.00 0.00 0.00 52 1018.6
20260503201514 17 295 4.8 17.7 0.00 0.00 0.00 55 1018.7
20260503200014 17 42 12.9 19.3 0.00 0.00 0.00 49 1019.0
20260503194511 17 5 11.3 17.7 0.00 0.00 0.00 50 1019.3
20260503193011 16 327 12.9 22.5 0.00 0.00 0.00 48 1019.6
20260503191509 16 301 8.0 17.7 0.00 0.00 0.00 50 1019.7
20260503190014 16 311 6.4 19.3 0.00 0.00 0.00 59 1019.9
20260503184512 16 15 11.3 17.7 0.00 0.00 0.00 58 1020.0
20260503183005 16 317 9.7 14.5 0.00 0.00 0.00 62 1020.4
20260503181512 15 186 3.2 17.7 0.00 0.00 0.00 55 1020.5
20260503180010 15 298 6.4 17.7 0.00 0.00 0.00 55 1020.5
20260503174501 15 324 4.8 16.1 0.00 0.00 0.00 53 1020.7
20260503173111 15 78 6.4 14.5 0.00 0.00 0.00 54 1020.9
20260503171557 15 103 0.0 12.9 0.00 0.00 0.00 60 1021.0
20260503170107 15 342 0.0 8.0 0.00 0.00 0.00 62 1021.3